Find Starlink 35433

NORAD ID: 65870 Int'l Des: 2025-223 Owner: SPXS Country: US Constellation: starlink operational
LEOCIRCULAR

リアルタイム位置

3D地球を読み込み中...

Starlink 35433について

説明を読み込み中...

次回通過

Passes for default location (London). Set your location on the main map for personalized predictions.

高度履歴

Loading altitude history...

軌道要素

1 65870U 25223S 26105.36928242 .00022271 00000-0 76195-3 0 9995
2 65870 53.1613 123.6456 0001109 71.3653 288.7468 15.30193421 29834
Epoch: Apr 15, 2026 • Age: 25 hours

現在のステータス

高度 475.2 km
速度 7.63 km/s
衛星直下点 5.32°N, 128.62°E
打ち上げ日 Oct 3, 2025
運用期間 0.5 years
タイプ internet

技術仕様

分類 Payload
質量 575.00 kg
乾燥質量 530.00 kg
総質量 575.00 kg
長さ 0.30 m
直径 4.10 m
スパン 29.00 m
形状 Box + pan
製造者 SPXS
バスタイプ Starlink V2MO
フェーズステータス In Orbit
所有者/国 SPXS/US

Most Searched